Location: ????????
(60.4333°N, 46.4710°E)
Time: 19:16:11
(UTC+00:00)

H-2A R/B - Pass Details

Date: 25 November 2020
Orbit: 733 x 837 km, 98.2° (Epoch: 16 January)

Event Time Altitude Azimuth Distance (km) Brightness Sun altitude
Exits shadow 15:40:51 13° 171° (S) 2,193 4.2 -25.4°
Maximum altitude 15:45:37 71° 255° (WSW) 842 2.2 -26.0°
Drops below altitude 10° 15:50:47 10° 340° (NNW) 2,339 4.8 -26.6°
Sets 15:53:05 0° 343° (NNW) 3,255 5.5 -26.9°
